FW2285 Weather Reports


time (UTC)temp
C
wind
direction
speed
KPH
gust
KPH
rain 1hr
cm
rain 24hr
cm
rain mn
cm
humidity
%
barometer
mb
20260507191528 19 13 3.2 14.5 0.00 0.00 0.00 38 1014.6
20260507190027 18 222 3.2 11.3 0.00 0.00 0.00 37 1014.9
20260507184524 18 178 3.2 16.1 0.00 0.00 0.00 39 1015.2
20260507183036 18 239 4.8 20.9 0.00 0.00 0.00 40 1015.3
20260507181521 18 197 4.8 14.5 0.00 0.00 0.00 39 1015.4
20260507180025 18 182 4.8 16.1 0.00 0.00 0.00 40 1015.7
20260507174518 17 257 3.2 11.3 0.00 0.00 0.00 41 1015.9
20260507173014 17 350 3.2 12.9 0.00 0.00 0.00 41 1015.9
20260507171512 17 258 4.8 16.1 0.00 0.00 0.00 41 1016.2
20260507170009 17 330 1.6 22.5 0.00 0.00 0.00 44 1016.5
20260507164506 15 198 4.8 17.7 0.00 0.00 0.00 42 1016.8
20260507163005 16 232 4.8 17.7 0.00 0.00 0.00 43 1016.9
20260507161503 15 176 1.6 12.9 0.00 0.00 0.00 44 1017.1
20260507160005 15 233 8.0 19.3 0.00 0.00 0.00 42 1017.2
20260507154601 16 270 4.8 16.1 0.00 0.00 0.00 45 1017.3
20260507153103 15 248 4.8 17.7 0.00 0.00 0.00 46 1017.4
20260507151554 15 169 4.8 16.1 0.00 0.00 0.00 44 1017.5
20260507150052 14 300 4.8 14.5 0.00 0.00 0.00 46 1017.6
20260507144553 14 167 4.8 16.1 0.00 0.00 0.00 47 1017.7
20260507143050 13 259 6.4 16.1 0.00 0.00 0.00 48 1017.5
20260507141546 13 188 1.6 6.4 0.00 0.00 0.00 50 1017.8
20260507140043 12 206 1.6 11.3 0.00 0.00 0.00 50 1017.8
20260507134536 11 236 1.6 12.9 0.00 0.00 0.00 52 1017.9
20260507133033 11 261 1.6 9.7 0.00 0.00 0.00 53 1017.8
20260507131534 10 229 0.0 6.4 0.00 0.00 0.00 53 1018.0
20260507130028 9 141 0.0 1.6 0.00 0.00 0.00 54 1018.2
20260507124536 8 165 0.0 1.6 0.00 0.00 0.00 55 1018.3
20260507123018 7 296 0.0 1.6 0.00 0.00 0.00 58 1018.3
20260507121517 5 296 0.0 0.0 0.00 0.00 0.00 60 1018.3
20260507120016 4 296 0.0 0.0 0.00 0.00 0.00 61 1018.0
20260507114515 3 296 0.0 0.0 0.00 0.00 0.00 61 1018.1
20260507113018 3 296 0.0 0.0 0.00 0.00 0.00 61 1018.1
20260507111517 3 296 0.0 0.0 0.00 0.00 0.00 61 1018.1
20260507110025 3 296 0.0 0.0 0.00 0.00 0.00 61 1017.8
20260507104513 3 296 0.0 0.0 0.00 0.00 0.00 61 1017.9
20260507103013 3 296 0.0 0.0 0.00 0.00 0.00 61 1017.9
20260507101512 3 296 0.0 0.0 0.00 0.00 0.00 61 1017.9
20260507100018 3 296 0.0 0.0 0.00 0.00 0.00 61 1017.9
20260507094509 3 296 0.0 0.0 0.00 0.00 0.00 61 1018.1
20260507093009 3 296 0.0 0.0 0.00 0.00 0.00 61 1018.2
20260507091507 3 296 0.0 0.0 0.00 0.00 0.00 61 1018.2
20260507090007 3 296 0.0 0.0 0.00 0.00 0.00 60 1018.2
20260507084503 3 296 0.0 0.0 0.00 0.00 0.00 60 1018.3
20260507083003 3 296 0.0 0.0 0.00 0.00 0.00 60 1018.4
20260507081505 4 296 0.0 0.0 0.00 0.00 0.00 60 1018.4
20260507080103 4 296 0.0 0.0 0.00 0.00 0.00 61 1018.3
20260507074612 4 296 0.0 0.0 0.00 0.00 0.00 61 1018.3
20260507073056 5 296 0.0 0.0 0.00 0.00 0.00 61 1018.5
20260507071555 5 296 0.0 0.0 0.00 0.00 0.00 61 1018.6
20260507070106 5 296 0.0 0.0 0.00 0.03 0.00 61 1018.8
20260507064548 6 296 0.0 0.0 0.00 0.03 0.00 61 1019.0
20260507063055 6 296 0.0 0.0 0.00 0.03 0.00 60 1019.0
20260507061548 6 296 0.0 0.0 0.00 0.03 0.00 59 1019.1
20260507060046 7 296 0.0 0.0 0.00 0.08 0.00 58 1019.2
20260507054543 7 296 0.0 0.0 0.00 0.08 0.00 58 1019.1
20260507053040 7 296 0.0 0.0 0.00 0.08 0.00 59 1019.1
20260507051538 7 296 0.0 0.0 0.00 0.08 0.00 59 1019.1
20260507050037 7 296 0.0 0.0 0.00 0.10 0.08 59 1019.1
20260507044535 7 296 0.0 0.0 0.00 0.10 0.08 59 1019.1
20260507043037 7 296 0.0 0.0 0.00 0.10 0.08 59 1019.0
20260507041534 7 296 0.0 0.0 0.00 0.10 0.08 60 1019.2
20260507040034 6 296 0.0 0.0 0.00 0.10 0.08 59 1019.3
20260507034537 6 296 0.0 0.0 0.00 0.10 0.08 60 1019.4
20260507033033 6 296 0.0 0.0 0.00 0.10 0.08 59 1019.2
20260507031531 6 296 0.0 0.0 0.00 0.10 0.08 56 1019.3
20260507030031 6 296 0.0 0.0 0.00 0.10 0.08 56 1019.2
20260507024530 7 296 0.0 0.0 0.00 0.10 0.08 54 1019.1
20260507023029 7 296 0.0 0.0 0.00 0.10 0.08 52 1019.0
20260507021530 7 296 0.0 0.0 0.00 0.10 0.08 50 1018.9
20260507020039 8 296 0.0 0.0 0.00 0.10 0.08 46 1018.7
20260507014528 8 296 0.0 0.0 0.00 0.10 0.08 45 1018.7
20260507013044 10 296 0.0 0.0 0.00 0.10 0.08 40 1018.7
20260507011527 10 296 0.0 0.0 0.00 0.10 0.08 36 1018.5
20260507010034 11 296 0.0 0.0 0.00 0.10 0.08 31 1018.4
20260507004526 13 296 0.0 3.2 0.00 0.10 0.08 25 1018.6
20260507003025 13 291 0.0 11.3 0.00 0.10 0.08 26 1018.5
20260507001529 13 340 1.6 6.4 0.00 0.10 0.08 23 1018.5
20260507000025 14 309 3.2 8.0 0.00 0.10 0.08 23 1018.6
20260506234530 15 299 1.6 8.0 0.00 0.10 0.08 21 1018.6
20260506233027 15 260 1.6 14.5 0.00 0.10 0.08 24 1018.6
20260506231527 15 330 3.2 12.9 0.00 0.10 0.08 22 1018.6
20260506230026 15 22 1.6 6.4 0.00 0.10 0.08 24 1018.5
20260506224521 15 9 3.2 9.7 0.00 0.10 0.08 23 1018.6
20260506223021 15 5 1.6 11.3 0.00 0.10 0.08 20 1018.6
20260506221520 15 311 3.2 8.0 0.00 0.10 0.08 24 1018.7
20260506220027 15 38 4.8 14.5 0.00 0.10 0.08 23 1018.8
20260506214519 15 313 6.4 11.3 0.00 0.10 0.08 22 1018.8
20260506213018 15 258 3.2 11.3 0.00 0.10 0.08 25 1019.0
20260506211525 15 340 3.2 9.7 0.00 0.10 0.08 26 1019.2
20260506210025 15 306 3.2 8.0 0.00 0.10 0.08 27 1019.3
20260506204516 15 301 1.6 8.0 0.00 0.10 0.08 24 1019.5
20260506203014 15 234 0.0 9.7 0.00 0.10 0.08 28 1019.7
20260506201513 15 344 1.6 9.7 0.00 0.10 0.08 28 1019.8
20260506200031 15 259 3.2 9.7 0.00 0.10 0.08 27 1019.9
20260506194511 15 65 1.6 12.9 0.00 0.10 0.08 24 1020.1
20260506193009 15 248 3.2 14.5 0.00 0.10 0.08 27 1020.2